Total_Precipitation_Accumulation
0.24 0.21 0.26 0.14 0.13 0.18 0.16 0.21 0.19 0.20 0.18 0.21 0.20 0.18 0.20 0.24 0.25 0.21 0.18 0.23 0.18 0.09 0.10 0.17 0.16 0.12 0.16 0.18 0.27 0.27 0.19 0.14 0.09 0.06 0.05 0.03 0.02 0.01 0.00 0.00 0.00 0.00 0.00
0.33 0.40 0.26 0.19 0.14 0.10 0.18 0.37 0.40 0.41 0.37 0.33 0.23 0.24 0.17 0.19 0.26 0.32 0.27 0.25 0.44 0.35 0.21 0.39 0.45 0.41 0.34 0.35 0.39 0.47 0.38 0.32 0.25 0.20 0.15 0.15 0.12 0.06 0.03 0.01 0.01 0.01 0.01
0.37 0.34 0.67 0.45 0.14 0.13 0.17 0.23 0.29 0.35 0.34 0.43 0.28 0.33 0.41 0.38 0.31 0.22 0.23 0.20 0.29 0.40 0.38 0.26 0.39 0.71 0.85 0.83 0.71 0.66 0.72 0.58 0.46 0.47 0.41 0.29 0.19 0.14 0.10 0.07 0.05 0.03 0.02
0.09 0.28 0.30 0.60 0.57 0.38 0.30 0.24 0.26 0.32 0.29 0.34 0.33 0.27 0.26 0.31 0.26 0.16 0.16 0.16 0.28 0.41 0.60 0.64 0.53 0.77 1.00 0.98 0.99 0.99 1.20 1.03 0.62 0.49 0.51 0.47 0.40 0.45 0.44 0.38 0.31 0.14 0.09
0.12 0.13 0.18 0.26 0.43 0.46 0.40 0.38 0.34 0.29 0.28 0.29 0.21 0.20 0.23 0.22 0.16 0.19 0.22 0.28 0.29 0.34 0.35 0.63 0.90 0.93 0.86 0.74 0.60 0.78 0.75 0.88 0.90 0.84 0.77 0.70 0.58 0.48 0.50 0.59 0.63 0.42 0.24
0.45 0.34 0.28 0.39 0.33 0.30 0.31 0.27 0.26 0.31 0.28 0.19 0.17 0.16 0.17 0.17 0.16 0.20 0.25 0.30 0.21 0.16 0.14 0.17 0.21 0.24 0.37 0.37 0.34 0.37 0.36 0.37 0.52 0.56 0.54 0.56 0.60 0.49 0.47 0.52 0.52 0.55 0.54
0.81 0.73 0.54 0.43 0.35 0.25 0.22 0.22 0.25 0.33 0.40 0.46 0.46 0.26 0.18 0.15 0.16 0.17 0.18 0.17 0.16 0.12 0.08 0.07 0.06 0.09 0.13 0.12 0.07 0.12 0.17 0.19 0.30 0.42 0.46 0.46 0.49 0.47 0.55 0.62 0.62 0.67 0.74
1.13 0.85 0.71 0.69 0.58 0.54 0.45 0.50 0.49 0.48 0.46 0.60 0.57 0.37 0.21 0.16 0.18 0.11 0.09 0.11 0.12 0.14 0.14 0.13 0.09 0.05 0.03 0.03 0.03 0.03 0.08 0.14 0.19 0.43 0.55 0.48 0.50 0.57 0.68 0.77 0.63 0.47 0.48
1.43 1.56 1.86 1.55 1.01 1.02 1.15 1.22 1.28 1.27 1.06 0.82 0.73 0.72 0.43 0.22 0.09 0.08 0.07 0.08 0.09 0.10 0.12 0.14 0.13 0.09 0.05 0.03 0.02 0.02 0.03 0.10 0.19 0.35 0.55 0.66 0.80 0.76 0.61 0.51 0.40 0.44 0.43
1.69 1.86 2.15 2.74 3.21 2.75 1.93 1.63 1.54 1.38 1.43 1.29 1.25 0.98 0.83 0.59 0.39 0.16 0.06 0.06 0.06 0.05 0.06 0.07 0.06 0.07 0.09 0.10 0.08 0.09 0.10 0.16 0.14 0.27 0.60 0.80 1.09 1.07 0.81 0.65 0.63 0.61 0.54
2.02 1.86 1.89 1.96 1.98 2.17 2.63 2.40 1.95 1.84 1.71 1.41 1.16 0.94 0.84 0.80 0.81 0.70 0.37 0.19 0.14 0.09 0.09 0.09 0.10 0.13 0.16 0.18 0.20 0.22 0.35 0.39 0.23 0.49 0.77 1.06 1.11 1.28 1.50 1.48 1.16 0.93 0.83
1.80 1.70 1.52 1.38 1.41 1.46 1.56 1.92 1.95 1.68 1.57 1.61 1.53 1.36 1.14 1.08 0.92 1.03 0.94 0.59 0.51 0.37 0.27 0.24 0.20 0.17 0.20 0.23 0.26 0.33 0.35 0.39 0.47 0.64 0.82 1.07 1.22 1.31 1.45 1.57 1.56 1.40 1.31
1.72 1.65 1.53 1.53 1.41 1.42 1.46 1.55 1.71 1.64 1.46 1.31 1.26 1.29 1.40 1.42 1.39 1.42 1.36 1.00 0.68 0.44 0.33 0.19 0.12 0.14 0.16 0.15 0.19 0.35 0.36 0.39 0.43 0.60 0.77 0.97 1.25 1.31 1.37 1.70 2.38 2.70 2.78
1.55 1.87 1.77 1.74 1.78 1.73 1.71 1.72 1.76 1.81 1.71 1.62 1.63 1.56 1.50 1.46 1.59 1.75 1.86 1.86 1.72 1.12 0.69 0.47 0.32 0.37 0.39 0.38 0.48 0.62 0.45 0.54 0.55 0.69 0.90 1.09 1.31 1.38 1.44 1.56 1.67 1.73 2.08
1.18 1.31 1.42 1.33 1.32 1.32 1.29 1.37 1.38 1.37 1.49 1.53 1.42 1.35 1.29 1.17 1.28 1.40 1.57 1.88 2.40 2.23 1.42 0.92 0.89 0.88 0.88 0.90 1.06 0.95 0.78 0.99 1.05 1.03 1.04 1.10 0.99 1.03 1.00 1.06 1.19 1.13 1.37
0.55 0.68 0.79 0.81 0.88 0.93 1.07 1.17 1.21 1.29 1.39 1.40 1.42 1.46 1.47 1.41 1.38 1.31 1.28 1.40 1.59 1.96 1.82 1.04 0.94 0.99 1.15 1.34 1.72 1.70 1.61 1.81 1.43 1.21 1.14 0.93 0.80 0.66 0.59 0.61 0.65 0.66 0.77
0.08 0.10 0.12 0.15 0.17 0.24 0.42 0.63 0.79 0.97 1.17 1.32 1.59 1.84 1.95 2.06 2.26 2.24 2.29 2.45 2.58 2.69 2.66 1.72 1.37 1.27 1.25 1.25 1.24 1.14 1.19 1.17 1.25 1.45 1.23 1.09 0.87 0.70 0.63 0.57 0.53 0.50 0.50
0.05 0.05 0.06 0.06 0.06 0.10 0.13 0.15 0.17 0.22 0.30 0.40 0.55 0.71 0.79 0.95 1.21 1.42 1.66 1.82 2.16 2.62 3.05 2.42 1.77 1.61 1.48 1.33 1.12 0.87 0.80 0.85 0.89 1.20 1.20 1.13 1.04 0.94 0.92 0.92 0.81 0.68 0.57
0.06 0.05 0.04 0.05 0.06 0.05 0.06 0.08 0.11 0.14 0.20 0.29 0.36 0.41 0.44 0.47 0.54 0.58 0.69 0.87 1.03 1.18 1.42 1.39 1.09 1.00 1.02 1.15 1.25 1.17 1.04 0.95 0.88 1.15 1.06 1.04 1.08 1.05 0.96 0.90 0.92 0.98 0.96
0.05 0.04 0.05 0.05 0.07 0.08 0.10 0.11 0.11 0.11 0.10 0.10 0.13 0.15 0.22 0.31 0.43 0.62 0.86 0.96 0.92 0.80 0.72 0.65 0.60 0.53 0.50 0.54 0.64 0.68 0.65 0.57 0.49 0.50 0.57 0.57 0.65 0.69 0.78 0.81 0.73 0.70 0.78
0.04 0.04 0.08 0.14 0.16 0.17 0.20 0.19 0.19 0.20 0.21 0.25 0.26 0.31 0.37 0.49 0.57 0.53 0.45 0.36 0.37 0.41 0.43 0.47 0.43 0.33 0.28 0.25 0.26 0.29 0.33 0.39 0.44 0.49 0.41 0.33 0.27 0.23 0.28 0.43 0.59 0.72 0.73
0.10 0.10 0.13 0.14 0.17 0.21 0.37 0.31 0.25 0.26 0.29 0.31 0.34 0.37 0.41 0.50 0.40 0.39 0.30 0.26 0.22 0.26 0.25 0.21 0.17 0.12 0.09 0.11 0.15 0.23 0.32 0.44 0.44 0.32 0.32 0.30 0.26 0.21 0.16 0.16 0.28 0.41 0.54
0.15 0.24 0.25 0.20 0.16 0.15 0.29 0.24 0.22 0.20 0.23 0.25 0.25 0.23 0.20 0.19 0.17 0.13 0.19 0.21 0.25 0.23 0.18 0.12 0.09 0.06 0.07 0.07 0.16 0.20 0.19 0.21 0.15 0.10 0.22 0.30 0.29 0.30 0.22 0.24 0.25 0.23 0.33
0.29 0.25 0.27 0.37 0.45 0.54 0.51 0.36 0.28 0.20 0.19 0.17 0.15 0.13 0.09 0.04 0.03 0.03 0.05 0.11 0.08 0.11 0.16 0.18 0.16 0.16 0.20 0.22 0.27 0.31 0.17 0.12 0.10 0.08 0.14 0.22 0.16 0.22 0.20 0.22 0.32 0.30 0.33
0.68 0.77 0.64 0.55 0.66 0.74 0.61 0.47 0.30 0.22 0.18 0.13 0.07 0.02 0.01 0.00 0.03 0.03 0.05 0.02 0.00 0.01 0.09 0.17 0.26 0.37 0.44 0.44 0.34 0.30 0.35 0.35 0.27 0.13 0.09 0.10 0.09 0.14 0.16 0.17 0.20 0.29 0.32
0.68 0.66 0.70 0.57 0.52 0.48 0.35 0.27 0.20 0.12 0.06 0.02 0.00 0.00 0.02 0.01 0.03 0.06 0.05 0.03 0.04 0.01 0.05 0.06 0.08 0.16 0.26 0.32 0.36 0.23 0.17 0.32 0.35 0.42 0.27 0.34 0.18 0.14 0.30 0.13 0.15 0.22 0.24